SAS39G LIRQ-EKCH

Flight info

Callsign SAS39G
Flight time N/A
Altitude 18000
Route OKMAP Q125 OMAKU/N0452F360 DCT BOA DCT LUMAV DCT GIKEB DCT BRENO DCT KONIN/N0457F380 DCT EXITI DCT EMBOX/N0452F370 DCT NOBRI/N0453F380 M726 ROSOK Q296 MONAK
Aircraft A319/M-SDE3FGHIRWY/LB1

Departure

Time 2026-04-21 16:53
Airport Florence Airport, Peretola (LIRQ)

Arrival

Time N/A
Airport Copenhagen Kastrup Airport (EKCH)
Time Latitude Longitude Altitude Speed Heading
2026-04-21 15:44 43.80291 11.20035 125 ft 0 kts 159°
2026-04-21 15:59 43.80310 11.20024 123 ft 4 kts 154°
2026-04-21 15:59 43.80333 11.20005 127 ft 4 kts 139°
2026-04-21 15:59 43.80348 11.19979 129 ft 4 kts 95°
2026-04-21 16:00 43.80347 11.19961 128 ft 1 kts 73°
2026-04-21 16:00 43.80347 11.19960 128 ft 1 kts 73°
2026-04-21 16:02 43.80352 11.19985 126 ft 6 kts 73°
2026-04-21 16:02 43.80393 11.20036 130 ft 10 kts 12°
2026-04-21 16:02 43.80468 11.20052 132 ft 11 kts
2026-04-21 16:03 43.80523 11.20105 132 ft 2 kts 49°
2026-04-21 16:03 43.80516 11.20112 129 ft 1 kts 164°
2026-04-21 16:03 43.80509 11.20102 131 ft 0 kts 223°
2026-04-21 16:45 43.80508 11.20101 131 ft 0 kts 223°
2026-04-21 16:48 43.80502 11.20092 132 ft 5 kts 224°
2026-04-21 16:48 43.80488 11.20048 133 ft 5 kts 266°
2026-04-21 16:48 43.80510 11.20008 134 ft 6 kts 322°
2026-04-21 16:49 43.80553 11.19993 133 ft 8 kts
2026-04-21 16:49 43.80620 11.20009 132 ft 11 kts
2026-04-21 16:49 43.80692 11.20026 132 ft 11 kts 23°
2026-04-21 16:49 43.80745 11.20099 133 ft 12 kts 49°
2026-04-21 16:50 43.80805 11.20196 132 ft 15 kts 49°
2026-04-21 16:50 43.80883 11.20321 128 ft 19 kts 49°
2026-04-21 16:50 43.80973 11.20466 127 ft 22 kts 49°
2026-04-21 16:50 43.81081 11.20625 125 ft 23 kts 46°
2026-04-21 16:51 43.81192 11.20795 126 ft 24 kts 51°
2026-04-21 16:51 43.81304 11.20975 133 ft 25 kts 46°
2026-04-21 16:51 43.81423 11.21153 133 ft 25 kts 47°
2026-04-21 16:51 43.81528 11.21323 138 ft 13 kts 57°
2026-04-21 16:52 43.81534 11.21332 139 ft 0 kts 39°
2026-04-21 16:52 43.81538 11.21332 140 ft 1 kts
2026-04-21 16:52 43.81531 11.21314 137 ft 8 kts 214°
2026-04-21 16:52 43.81519 11.21298 135 ft 0 kts 227°
2026-04-21 16:53 43.81442 11.21182 133 ft 56 kts 227°
2026-04-21 16:53 43.80995 11.20492 126 ft 140 kts 229°
2026-04-21 16:53 43.80256 11.19419 686 ft 153 kts 226°
2026-04-21 16:53 43.79656 11.18218 1448 ft 156 kts 260°
2026-04-21 16:54 43.79931 11.16811 2095 ft 159 kts 309°
2026-04-21 16:54 43.80631 11.15584 2500 ft 172 kts 296°
2026-04-21 16:54 43.80904 11.13870 2756 ft 195 kts 276°
2026-04-21 16:54 43.80989 11.11878 3006 ft 221 kts 272°
2026-04-21 16:55 43.81041 11.09699 3686 ft 227 kts 272°
2026-04-21 16:55 43.81098 11.07509 4593 ft 228 kts 273°
2026-04-21 16:55 43.81271 11.05312 5206 ft 244 kts 288°
2026-04-21 16:55 43.82236 11.03246 5660 ft 266 kts 321°
2026-04-21 16:56 43.83937 11.02222 6427 ft 274 kts 354°
2026-04-21 16:56 43.85801 11.02674 7294 ft 278 kts 28°
2026-04-21 16:56 43.87344 11.04268 8162 ft 282 kts 41°
2026-04-21 16:56 43.88826 11.06090 9030 ft 287 kts 42°
2026-04-21 16:57 43.90312 11.07980 9831 ft 293 kts 42°
2026-04-21 16:57 43.91845 11.09942 10355 ft 310 kts 41°
2026-04-21 16:57 43.93492 11.12034 10675 ft 331 kts 40°
2026-04-21 16:57 43.95220 11.14216 11295 ft 339 kts 40°
2026-04-21 16:58 43.96983 11.16431 12035 ft 344 kts 39°
2026-04-21 16:58 43.98772 11.18672 12742 ft 349 kts 38°
2026-04-21 16:58 44.00584 11.20937 13438 ft 352 kts 38°
2026-04-21 16:58 44.02416 11.23226 14128 ft 356 kts 38°
2026-04-21 16:59 44.04266 11.25542 14811 ft 360 kts 38°
2026-04-21 16:59 44.06135 11.27884 15454 ft 364 kts 38°
2026-04-21 16:59 44.08024 11.30257 16086 ft 368 kts 38°
2026-04-21 16:59 44.09907 11.32626 16702 ft 372 kts 37°
2026-04-21 17:00 44.11840 11.35057 17316 ft 376 kts 37°
2026-04-21 17:00 44.13889 11.37310 17890 ft 375 kts 27°
2026-04-21 17:00 44.15411 11.38491 18282 ft 372 kts 19°
2026-04-21 17:00 44.18635 11.39978 19050 ft 368 kts
2026-04-21 17:01 44.21140 11.40814 19655 ft 371 kts
2026-04-21 17:01 44.23653 11.41665 20227 ft 374 kts
2026-04-21 17:01 44.26195 11.42537 20826 ft 377 kts
2026-04-21 17:01 44.28744 11.43418 21391 ft 379 kts
2026-04-21 17:02 44.31316 11.44308 21943 ft 382 kts
2026-04-21 17:02 44.33906 11.45202 22479 ft 385 kts
2026-04-21 17:02 44.36507 11.46095 23043 ft 386 kts
2026-04-21 17:02 44.39128 11.46993 23554 ft 388 kts
2026-04-21 17:03 44.40905 11.47602 23880 ft 390 kts
2026-04-21 17:03 44.44408 11.48803 24505 ft 393 kts
2026-04-21 17:03 44.46171 11.49409 24808 ft 394 kts
2026-04-21 17:03 44.48844 11.50329 25253 ft 397 kts
2026-04-21 17:04 44.51532 11.51255 25688 ft 400 kts
2026-04-21 17:04 44.54246 11.52190 26100 ft 402 kts
2026-04-21 17:04 44.56972 11.53127 26513 ft 405 kts
2026-04-21 17:04 44.59720 11.54073 26929 ft 407 kts
2026-04-21 17:05 44.62475 11.55026 27333 ft 410 kts
2026-04-21 17:05 44.65254 11.55991 27729 ft 412 kts
2026-04-21 17:05 44.68041 11.56961 28131 ft 414 kts
2026-04-21 17:05 44.70845 11.57937 28508 ft 416 kts
2026-04-21 17:06 44.73664 11.58918 28868 ft 419 kts
2026-04-21 17:06 44.76508 11.59908 29229 ft 421 kts
2026-04-21 17:06 44.79361 11.60897 29583 ft 423 kts
2026-04-21 17:06 44.82244 11.61550 29930 ft 416 kts 355°
2026-04-21 17:07 44.85116 11.61643 30276 ft 412 kts 351°
2026-04-21 17:07 44.87958 11.61643 30603 ft 414 kts 351°
2026-04-21 17:07 44.90884 11.61648 30918 ft 416 kts 352°
2026-04-21 17:07 44.93786 11.61657 31220 ft 418 kts 352°
2026-04-21 17:08 44.96665 11.61666 31514 ft 421 kts 352°
2026-04-21 17:08 44.99602 11.61678 31872 ft 421 kts 352°
2026-04-21 17:08 45.02519 11.61692 32293 ft 419 kts 352°
2026-04-21 17:08 45.05436 11.61708 32673 ft 419 kts 352°
2026-04-21 17:09 45.11260 11.61734 33456 ft 418 kts 351°
2026-04-21 17:09 45.14165 11.61743 33844 ft 417 kts 351°
2026-04-21 17:09 45.17057 11.61749 34227 ft 416 kts 351°
2026-04-21 17:10 45.19952 11.61755 34593 ft 416 kts 351°
2026-04-21 17:10 45.22843 11.61763 34923 ft 416 kts 352°
2026-04-21 17:10 45.25746 11.61773 35228 ft 416 kts 352°
2026-04-21 17:10 45.28643 11.61785 35533 ft 416 kts 352°
2026-04-21 17:11 45.31542 11.61797 35844 ft 417 kts 352°
2026-04-21 17:11 45.34445 11.61808 36109 ft 417 kts 352°
2026-04-21 17:11 45.37349 11.61817 36359 ft 418 kts 352°
2026-04-21 17:11 45.40263 11.61823 36597 ft 419 kts 352°
2026-04-21 17:12 45.43180 11.61829 36865 ft 419 kts 352°
2026-04-21 17:12 45.46084 11.61840 37218 ft 416 kts 353°
2026-04-21 17:12 45.48975 11.61858 37564 ft 414 kts 353°
2026-04-21 17:12 45.51853 11.61872 37831 ft 414 kts 353°
2026-04-21 17:13 45.54740 11.61878 37968 ft 415 kts 353°
2026-04-21 17:13 45.57631 11.61885 38000 ft 416 kts 353°
2026-04-21 17:13 45.63406 11.61896 37998 ft 415 kts 353°
2026-04-21 17:14 45.69188 11.61914 37997 ft 415 kts 353°
2026-04-21 17:14 45.74936 11.61935 37999 ft 415 kts 353°
2026-04-21 17:15 45.80719 11.61957 38009 ft 416 kts 353°
2026-04-21 17:15 45.86495 11.61968 38002 ft 414 kts 353°
2026-04-21 17:16 45.92260 11.61985 38001 ft 415 kts 353°
2026-04-21 17:16 45.98043 11.62005 37999 ft 415 kts 353°
2026-04-21 17:17 46.03816 11.62025 37993 ft 415 kts 354°
2026-04-21 17:17 46.09585 11.62038 38005 ft 415 kts 353°
2026-04-21 17:18 46.15353 11.62059 38000 ft 415 kts 354°
2026-04-21 17:18 46.21025 11.61246 38006 ft 406 kts 342°
2026-04-21 17:19 46.26562 11.59564 38004 ft 407 kts 342°
2026-04-21 17:19 46.32069 11.57893 38004 ft 407 kts 342°
2026-04-21 17:20 46.37609 11.56210 38006 ft 408 kts 342°
2026-04-21 17:20 46.43174 11.54528 38001 ft 408 kts 342°
2026-04-21 17:21 46.48743 11.52832 37981 ft 409 kts 343°
2026-04-21 17:21 46.54310 11.51130 37978 ft 409 kts 342°
2026-04-21 17:22 46.59877 11.49420 37952 ft 409 kts 342°
2026-04-21 17:22 46.65448 11.47710 37969 ft 409 kts 343°
2026-04-21 17:23 46.71022 11.46003 37967 ft 410 kts 343°
2026-04-21 17:23 46.76608 11.44284 37969 ft 410 kts 343°
2026-04-21 17:24 46.82197 11.42559 37985 ft 411 kts 343°
2026-04-21 17:24 46.87798 11.40823 37994 ft 412 kts 343°
2026-04-21 17:25 46.93395 11.39083 38000 ft 412 kts 343°
2026-04-21 17:25 46.99028 11.37661 38008 ft 418 kts 353°
2026-04-21 17:26 47.04873 11.37595 38024 ft 421 kts 354°
2026-04-21 17:26 47.10724 11.37546 38033 ft 420 kts 355°
2026-04-21 17:27 47.16568 11.37486 38046 ft 420 kts 355°
2026-04-21 17:27 47.22425 11.37425 38052 ft 420 kts 355°
2026-04-21 17:28 47.28281 11.37362 38057 ft 421 kts 355°
2026-04-21 17:28 47.34149 11.37304 38062 ft 422 kts 355°
2026-04-21 17:29 47.40024 11.37249 38065 ft 423 kts 355°
2026-04-21 17:29 47.45915 11.37190 38071 ft 423 kts 355°
2026-04-21 17:30 47.51808 11.37132 38082 ft 424 kts 355°
2026-04-21 17:30 47.57703 11.37073 38089 ft 424 kts 355°
2026-04-21 17:31 47.63611 11.37012 38087 ft 425 kts 355°
2026-04-21 17:31 47.69488 11.36957 38099 ft 424 kts 355°
2026-04-21 17:32 47.75086 11.36908 38101 ft 424 kts 355°
2026-04-21 17:32 47.81055 11.36854 38112 ft 424 kts 355°
2026-04-21 17:33 47.86916 11.36801 38123 ft 425 kts 356°
2026-04-21 17:33 47.92845 11.36887 38133 ft 426 kts 357°
2026-04-21 17:34 47.98774 11.37062 38146 ft 427 kts 357°
2026-04-21 17:34 48.04718 11.37229 38153 ft 427 kts 358°
2026-04-21 17:35 48.10654 11.37368 38159 ft 427 kts 357°